Find Starlink 33545

NORAD ID: 62101 Int'l Des: 2024-220 Owner: SPXS Country: US Constellation: starlink operational
LEOCIRCULAR

Current View

Loading 3D Globe...

About Starlink 33545

Starlink 33545 (NORAD 62101) is a starlink constellation satellite (v2 mini) launched Nov 25, 2024 by SPXS of US. It operates in LEO, CIRCULAR orbit with a mass of 530.00 kg.

About Starlink 33545

Description loading...

Upcoming Passes

Passes for default location (London). Set your location on the main map for personalized predictions.

Altitude History

Loading altitude history...

Two-Line Element Set

1 62101U 24220P 26171.21250785 .00014562 00000-0 53713-3 0 9997
2 62101 43.0088 346.3013 0003954 273.8404 86.1995 15.27607838 88702
Epoch: Jun 20, 2026 • Age: 35 hours

Current Status

Altitude 485.8 km
Velocity 7.63 km/s
Sub-Earth Point 33.71°N, 124.29°W
Launch Date Nov 25, 2024
Age 1.5 years
Type internet

Technical Details

Classification Payload
Mass 530.00 kg
Dry Mass 500.00 kg
Total Mass 530.00 kg
Length 0.30 m
Diameter 4.10 m
Span 29.00 m
Shape Box + pan
Manufacturer SPXS
Bus Type Starlink V2MO
Phase Status In Orbit
Owner/State SPXS/US

Most Searched